Year,Month,Day,Hour,Minute,Value (Times are PST for temperature in C)
2007,06,20,00,00,14.10
2007,06,20,00,01,14.10
2007,06,20,00,02,14.00
2007,06,20,00,03,14.00
2007,06,20,00,04,13.90
2007,06,20,00,05,13.90
2007,06,20,00,06,13.80
2007,06,20,00,07,13.80
2007,06,20,00,08,13.80
2007,06,20,00,09,13.80
2007,06,20,00,10,13.80
2007,06,20,00,11,13.80
2007,06,20,00,12,13.80
2007,06,20,00,13,13.70
2007,06,20,00,14,13.70
2007,06,20,00,15,13.60
2007,06,20,00,16,13.60
2007,06,20,00,17,13.60
2007,06,20,00,18,13.60
2007,06,20,00,19,13.50
2007,06,20,00,20,13.50
2007,06,20,00,21,13.50
2007,06,20,00,22,13.50
2007,06,20,00,23,13.50
2007,06,20,00,24,13.40
2007,06,20,00,25,13.40
2007,06,20,00,26,13.40
2007,06,20,00,27,13.40
2007,06,20,00,28,13.40
2007,06,20,00,29,13.40
2007,06,20,00,30,13.50
2007,06,20,00,31,13.50
2007,06,20,00,32,13.50
2007,06,20,00,33,13.50
2007,06,20,00,34,13.50
2007,06,20,00,35,13.60
2007,06,20,00,36,13.60
2007,06,20,00,37,13.60
2007,06,20,00,38,13.60
2007,06,20,00,39,13.70
2007,06,20,00,40,13.70
2007,06,20,00,41,13.70
2007,06,20,00,42,13.70
2007,06,20,00,43,13.70
2007,06,20,00,44,13.60
2007,06,20,00,45,13.60
2007,06,20,00,46,13.60
2007,06,20,00,47,13.60
2007,06,20,00,48,13.60
2007,06,20,00,49,13.60
2007,06,20,00,50,13.60
2007,06,20,00,51,13.60
2007,06,20,00,52,13.60
2007,06,20,00,53,13.60
2007,06,20,00,54,13.50
2007,06,20,00,55,13.50
2007,06,20,00,56,13.40
2007,06,20,00,57,13.40
2007,06,20,00,58,13.40
2007,06,20,00,59,13.40
2007,06,20,01,00,13.40
2007,06,20,01,01,13.50
2007,06,20,01,02,13.50
2007,06,20,01,03,13.50
2007,06,20,01,04,13.50
2007,06,20,01,05,13.50
2007,06,20,01,06,13.40
2007,06,20,01,07,13.40
2007,06,20,01,08,13.30
2007,06,20,01,09,13.20
2007,06,20,01,10,13.10
2007,06,20,01,11,13.00
2007,06,20,01,12,13.00
2007,06,20,01,13,13.10
2007,06,20,01,14,13.10
2007,06,20,01,15,13.10
2007,06,20,01,16,13.00
2007,06,20,01,17,13.00
2007,06,20,01,18,12.90
2007,06,20,01,19,12.90
2007,06,20,01,20,12.90
2007,06,20,01,21,12.90
2007,06,20,01,22,12.90
2007,06,20,01,23,12.90
2007,06,20,01,24,12.90
2007,06,20,01,25,13.00
2007,06,20,01,26,12.90
2007,06,20,01,27,12.90
2007,06,20,01,28,12.90
2007,06,20,01,29,12.80
2007,06,20,01,30,12.80
2007,06,20,01,31,12.90
2007,06,20,01,32,12.90
2007,06,20,01,33,12.90
2007,06,20,01,34,12.90
2007,06,20,01,35,13.00
2007,06,20,01,36,13.00
2007,06,20,01,37,13.00
2007,06,20,01,38,13.00
2007,06,20,01,39,13.10
2007,06,20,01,40,13.10
2007,06,20,01,41,13.10
2007,06,20,01,42,13.10
2007,06,20,01,43,13.20
2007,06,20,01,44,13.20
2007,06,20,01,45,13.20
2007,06,20,01,46,13.20
2007,06,20,01,47,13.20
2007,06,20,01,48,13.20
2007,06,20,01,49,13.20
2007,06,20,01,50,13.20
2007,06,20,01,51,13.20
2007,06,20,01,52,13.20
2007,06,20,01,53,13.20
2007,06,20,01,54,13.20
2007,06,20,01,55,13.20
2007,06,20,01,56,13.20
2007,06,20,01,57,13.20
2007,06,20,01,58,13.20
2007,06,20,01,59,13.20
2007,06,20,02,00,13.20
2007,06,20,02,01,13.20
2007,06,20,02,02,13.20
2007,06,20,02,03,13.30
2007,06,20,02,04,13.30
2007,06,20,02,05,13.30
2007,06,20,02,06,13.40
2007,06,20,02,07,13.40
2007,06,20,02,08,13.40
2007,06,20,02,09,13.40
2007,06,20,02,10,13.50
2007,06,20,02,11,13.50
2007,06,20,02,12,13.50
2007,06,20,02,13,13.50
2007,06,20,02,14,13.50
2007,06,20,02,15,13.50
2007,06,20,02,16,13.50
2007,06,20,02,17,13.40
2007,06,20,02,18,13.40
2007,06,20,02,19,13.40
2007,06,20,02,20,13.40
2007,06,20,02,21,13.40
2007,06,20,02,22,13.40
2007,06,20,02,23,13.30
2007,06,20,02,24,13.30
2007,06,20,02,25,13.30
2007,06,20,02,26,13.30
2007,06,20,02,27,13.30
2007,06,20,02,28,13.30
2007,06,20,02,29,13.30
2007,06,20,02,30,13.30
2007,06,20,02,31,13.20
2007,06,20,02,32,13.20
2007,06,20,02,33,13.20
2007,06,20,02,34,13.20
2007,06,20,02,35,13.20
2007,06,20,02,36,13.20
2007,06,20,02,37,13.20
2007,06,20,02,38,13.20
2007,06,20,02,39,13.20
2007,06,20,02,40,13.20
2007,06,20,02,41,13.20
2007,06,20,02,42,13.10
2007,06,20,02,43,13.00
2007,06,20,02,44,13.00
2007,06,20,02,45,13.10
2007,06,20,02,46,13.10
2007,06,20,02,47,13.10
2007,06,20,02,48,13.10
2007,06,20,02,49,13.20
2007,06,20,02,50,13.20
2007,06,20,02,51,13.20
2007,06,20,02,52,13.20
2007,06,20,02,53,13.30
2007,06,20,02,54,13.30
2007,06,20,02,55,13.30
2007,06,20,02,56,13.40
2007,06,20,02,57,13.40
2007,06,20,02,58,13.40
2007,06,20,02,59,13.50
2007,06,20,03,00,13.50
2007,06,20,03,01,13.60
2007,06,20,03,02,13.70
2007,06,20,03,03,13.70
2007,06,20,03,04,13.70
2007,06,20,03,05,13.70
2007,06,20,03,06,13.70
2007,06,20,03,07,13.80
2007,06,20,03,08,13.80
2007,06,20,03,09,13.80
2007,06,20,03,10,13.80
2007,06,20,03,11,13.80
2007,06,20,03,12,13.80
2007,06,20,03,13,13.80
2007,06,20,03,14,13.80
2007,06,20,03,15,13.70
2007,06,20,03,16,13.70
2007,06,20,03,17,13.70
2007,06,20,03,18,13.70
2007,06,20,03,19,13.70
2007,06,20,03,20,13.60
2007,06,20,03,21,13.60
2007,06,20,03,22,13.60
2007,06,20,03,23,13.60
2007,06,20,03,24,13.60
2007,06,20,03,25,13.60
2007,06,20,03,26,13.50
2007,06,20,03,27,13.50
2007,06,20,03,28,13.40
2007,06,20,03,29,13.40
2007,06,20,03,30,13.40
2007,06,20,03,31,13.40
2007,06,20,03,32,13.40
2007,06,20,03,33,13.30
2007,06,20,03,34,13.30
2007,06,20,03,35,13.30
2007,06,20,03,36,13.30
2007,06,20,03,37,13.20
2007,06,20,03,38,13.20
2007,06,20,03,39,13.20
2007,06,20,03,40,13.20
2007,06,20,03,41,13.20
2007,06,20,03,42,13.20
2007,06,20,03,43,13.10
2007,06,20,03,44,13.00
2007,06,20,03,45,12.90
2007,06,20,03,46,12.80
2007,06,20,03,47,12.80
2007,06,20,03,48,12.70
2007,06,20,03,49,12.60
2007,06,20,03,50,12.50
2007,06,20,03,51,12.40
2007,06,20,03,52,12.40
2007,06,20,03,53,12.30
2007,06,20,03,54,12.30
2007,06,20,03,55,12.30
2007,06,20,03,56,12.30
2007,06,20,03,57,12.40
2007,06,20,03,58,12.40
2007,06,20,03,59,12.40
2007,06,20,04,00,12.40
2007,06,20,04,01,12.40
2007,06,20,04,02,12.40
2007,06,20,04,03,12.30
2007,06,20,04,04,12.30
2007,06,20,04,05,12.30
2007,06,20,04,06,12.30
2007,06,20,04,07,12.20
2007,06,20,04,08,12.20
2007,06,20,04,09,12.20
2007,06,20,04,10,12.20
2007,06,20,04,11,12.10
2007,06,20,04,12,12.10
2007,06,20,04,13,12.10
2007,06,20,04,14,12.10
2007,06,20,04,15,12.10
2007,06,20,04,16,12.10
2007,06,20,04,17,12.00
2007,06,20,04,18,12.00
2007,06,20,04,19,11.90
2007,06,20,04,20,11.90
2007,06,20,04,21,11.90
2007,06,20,04,22,11.90
2007,06,20,04,23,11.80
2007,06,20,04,24,11.80
2007,06,20,04,25,11.80
2007,06,20,04,26,11.80
2007,06,20,04,27,11.80
2007,06,20,04,28,11.80
2007,06,20,04,29,11.80
2007,06,20,04,30,11.80
2007,06,20,04,31,11.70
2007,06,20,04,32,11.70
2007,06,20,04,33,11.70
2007,06,20,04,34,11.70
2007,06,20,04,35,11.70
2007,06,20,04,36,11.70
2007,06,20,04,37,11.70
2007,06,20,04,38,11.70
2007,06,20,04,39,11.70
2007,06,20,04,40,11.60
2007,06,20,04,41,11.60
2007,06,20,04,42,11.60
2007,06,20,04,43,11.60
2007,06,20,04,44,11.50
2007,06,20,04,45,11.60
2007,06,20,04,46,11.60
2007,06,20,04,47,11.60
2007,06,20,04,48,11.60
2007,06,20,04,49,11.60
2007,06,20,04,50,11.60
2007,06,20,04,51,11.60
2007,06,20,04,52,11.60
2007,06,20,04,53,11.60
2007,06,20,04,54,11.60
2007,06,20,04,55,11.60
2007,06,20,04,56,11.60
2007,06,20,04,57,11.50
2007,06,20,04,58,11.50
2007,06,20,04,59,11.40
2007,06,20,05,00,11.40
2007,06,20,05,01,11.30
2007,06,20,05,02,11.30
2007,06,20,05,03,11.30
2007,06,20,05,04,11.30
2007,06,20,05,05,11.20
2007,06,20,05,06,11.20
2007,06,20,05,07,11.20
2007,06,20,05,08,11.20
2007,06,20,05,09,11.10
2007,06,20,05,10,11.10
2007,06,20,05,11,11.10
2007,06,20,05,12,11.10
2007,06,20,05,13,11.10
2007,06,20,05,14,11.10
2007,06,20,05,15,11.00
2007,06,20,05,16,11.10
2007,06,20,05,17,11.10
2007,06,20,05,18,11.10
2007,06,20,05,19,11.10
2007,06,20,05,20,11.10
2007,06,20,05,21,11.10
2007,06,20,05,22,11.10
2007,06,20,05,23,11.10
2007,06,20,05,24,11.10
2007,06,20,05,25,11.10
2007,06,20,05,26,11.10
2007,06,20,05,27,11.10
2007,06,20,05,28,11.00
2007,06,20,05,29,11.00
2007,06,20,05,30,11.00
2007,06,20,05,31,11.10
2007,06,20,05,32,11.10
2007,06,20,05,33,11.10
2007,06,20,05,34,11.20
2007,06,20,05,35,11.20
2007,06,20,05,36,11.30
2007,06,20,05,37,11.30
2007,06,20,05,38,11.30
2007,06,20,05,39,11.40
2007,06,20,05,40,11.40
2007,06,20,05,41,11.40
2007,06,20,05,42,11.50
2007,06,20,05,43,11.50
2007,06,20,05,44,11.50
2007,06,20,05,45,11.60
2007,06,20,05,46,11.60
2007,06,20,05,47,11.70
2007,06,20,05,48,11.70
2007,06,20,05,49,11.70
2007,06,20,05,50,11.70
2007,06,20,05,51,11.80
2007,06,20,05,52,11.80
2007,06,20,05,53,11.90
2007,06,20,05,54,11.90
2007,06,20,05,55,12.00
2007,06,20,05,56,12.00
2007,06,20,05,57,12.10
2007,06,20,05,58,12.20
2007,06,20,05,59,12.20
2007,06,20,06,00,12.30
2007,06,20,06,01,12.30
2007,06,20,06,02,12.40
2007,06,20,06,03,12.40
2007,06,20,06,04,12.50
2007,06,20,06,05,12.50
2007,06,20,06,06,12.60
2007,06,20,06,07,12.60
2007,06,20,06,08,12.70
2007,06,20,06,09,12.70
2007,06,20,06,10,12.80
2007,06,20,06,11,12.80
2007,06,20,06,12,12.90
2007,06,20,06,13,12.90
2007,06,20,06,14,12.90
2007,06,20,06,15,12.90
2007,06,20,06,16,13.00
2007,06,20,06,17,13.00
2007,06,20,06,18,13.10
2007,06,20,06,19,13.10
2007,06,20,06,20,13.20
2007,06,20,06,21,13.20
2007,06,20,06,22,13.20
2007,06,20,06,23,13.30
2007,06,20,06,24,13.30
2007,06,20,06,25,13.30
2007,06,20,06,26,13.40
2007,06,20,06,27,13.40
2007,06,20,06,28,13.50
2007,06,20,06,29,13.60
2007,06,20,06,30,13.60
2007,06,20,06,31,13.70
2007,06,20,06,32,13.70
2007,06,20,06,33,13.80
2007,06,20,06,34,13.80
2007,06,20,06,35,13.80
2007,06,20,06,36,13.80
2007,06,20,06,37,13.90
2007,06,20,06,38,13.90
2007,06,20,06,39,13.90
2007,06,20,06,40,13.90
2007,06,20,06,41,13.90
2007,06,20,06,42,14.00
2007,06,20,06,43,14.00
2007,06,20,06,44,14.00
2007,06,20,06,45,14.00
2007,06,20,06,46,14.10
2007,06,20,06,47,14.10
2007,06,20,06,48,14.10
2007,06,20,06,49,14.20
2007,06,20,06,50,14.20
2007,06,20,06,51,14.20
2007,06,20,06,52,14.20
2007,06,20,06,53,14.20
2007,06,20,06,54,14.30
2007,06,20,06,55,14.30
2007,06,20,06,56,14.30
2007,06,20,06,57,14.30
2007,06,20,06,58,14.30
2007,06,20,06,59,14.30
2007,06,20,07,00,14.40
2007,06,20,07,01,14.40
2007,06,20,07,02,14.40
2007,06,20,07,03,14.40
2007,06,20,07,04,14.40
2007,06,20,07,05,14.40
2007,06,20,07,06,14.40
2007,06,20,07,07,14.40
2007,06,20,07,08,14.50
2007,06,20,07,09,14.50
2007,06,20,07,10,14.60
2007,06,20,07,11,14.60
2007,06,20,07,12,14.70
2007,06,20,07,13,14.70
2007,06,20,07,14,14.70
2007,06,20,07,15,14.70
2007,06,20,07,16,14.70
2007,06,20,07,17,14.70
2007,06,20,07,18,14.70
2007,06,20,07,19,14.70
2007,06,20,07,20,14.70
2007,06,20,07,21,14.70
2007,06,20,07,22,14.70
2007,06,20,07,23,14.80
2007,06,20,07,24,14.80
2007,06,20,07,25,14.90
2007,06,20,07,26,14.90
2007,06,20,07,27,14.90
2007,06,20,07,28,15.00
2007,06,20,07,29,15.00
2007,06,20,07,30,15.00
2007,06,20,07,31,15.00
2007,06,20,07,32,15.00
2007,06,20,07,33,15.00
2007,06,20,07,34,15.10
2007,06,20,07,35,15.20
2007,06,20,07,36,15.20
2007,06,20,07,37,15.20
2007,06,20,07,38,15.20
2007,06,20,07,39,15.20
2007,06,20,07,40,15.20
2007,06,20,07,41,15.00
2007,06,20,07,42,15.00
2007,06,20,07,43,15.00
2007,06,20,07,44,15.00
2007,06,20,07,45,15.00
2007,06,20,07,46,15.00
2007,06,20,07,47,15.20
2007,06,20,07,48,15.20
2007,06,20,07,49,15.30
2007,06,20,07,50,15.30
2007,06,20,07,51,15.30
2007,06,20,07,52,15.30
2007,06,20,07,53,15.30
2007,06,20,07,54,15.40
2007,06,20,07,55,15.40
2007,06,20,07,56,15.40
2007,06,20,07,57,15.40
2007,06,20,07,58,15.40
2007,06,20,07,59,15.30
2007,06,20,08,00,15.20
2007,06,20,08,01,15.10
2007,06,20,08,02,15.10
2007,06,20,08,03,15.10
2007,06,20,08,04,15.00
2007,06,20,08,05,15.00
2007,06,20,08,06,15.00
2007,06,20,08,07,15.00
2007,06,20,08,08,15.00
2007,06,20,08,09,15.00
2007,06,20,08,10,15.10
2007,06,20,08,11,15.10
2007,06,20,08,12,15.10
2007,06,20,08,13,15.00
2007,06,20,08,14,15.00
2007,06,20,08,15,15.00
2007,06,20,08,16,15.00
2007,06,20,08,17,15.00
2007,06,20,08,18,15.00
2007,06,20,08,19,15.00
2007,06,20,08,20,15.00
2007,06,20,08,21,15.00
2007,06,20,08,22,15.00
2007,06,20,08,23,15.00
2007,06,20,08,24,15.00
2007,06,20,08,25,15.00
2007,06,20,08,26,15.00
2007,06,20,08,27,15.00
2007,06,20,08,28,15.00
2007,06,20,08,29,15.10
2007,06,20,08,30,15.20
2007,06,20,08,31,15.30
2007,06,20,08,32,15.40
2007,06,20,08,33,15.50
2007,06,20,08,34,15.60
2007,06,20,08,35,15.60
2007,06,20,08,36,15.60
2007,06,20,08,37,15.50
2007,06,20,08,38,15.30
2007,06,20,08,39,15.20
2007,06,20,08,40,15.10
2007,06,20,08,41,15.00
2007,06,20,08,42,15.10
2007,06,20,08,43,15.20
2007,06,20,08,44,15.30
2007,06,20,08,45,15.40
2007,06,20,08,46,15.50
2007,06,20,08,47,15.60
2007,06,20,08,48,15.70
2007,06,20,08,49,15.80
2007,06,20,08,50,15.80
2007,06,20,08,51,15.90
2007,06,20,08,52,15.90
2007,06,20,08,53,15.80
2007,06,20,08,54,15.80
2007,06,20,08,55,15.80
2007,06,20,08,56,15.70
2007,06,20,08,57,15.60
2007,06,20,08,58,15.60
2007,06,20,08,59,15.60
2007,06,20,09,00,15.60
2007,06,20,09,01,15.60
2007,06,20,09,02,15.70
2007,06,20,09,03,15.70
2007,06,20,09,04,15.80
2007,06,20,09,05,15.80
2007,06,20,09,06,15.90
2007,06,20,09,07,15.90
2007,06,20,09,08,15.90
2007,06,20,09,09,15.80
2007,06,20,09,10,15.80
2007,06,20,09,11,15.80
2007,06,20,09,12,15.80
2007,06,20,09,13,15.80
2007,06,20,09,14,15.80
2007,06,20,09,15,15.70
2007,06,20,09,16,15.70
2007,06,20,09,17,15.80
2007,06,20,09,18,15.80
2007,06,20,09,19,15.80
2007,06,20,09,20,15.70
2007,06,20,09,21,15.70
2007,06,20,09,22,15.70
2007,06,20,09,23,15.70
2007,06,20,09,24,15.80
2007,06,20,09,25,15.80
2007,06,20,09,26,15.90
2007,06,20,09,27,16.00
2007,06,20,09,28,16.00
2007,06,20,09,29,16.10
2007,06,20,09,30,16.20
2007,06,20,09,31,16.30
2007,06,20,09,32,16.40
2007,06,20,09,33,16.40
2007,06,20,09,34,16.50
2007,06,20,09,35,16.60
2007,06,20,09,36,16.70
2007,06,20,09,37,16.70
2007,06,20,09,38,16.80
2007,06,20,09,39,17.00
2007,06,20,09,40,17.00
2007,06,20,09,41,17.10
2007,06,20,09,42,17.10
2007,06,20,09,43,17.00
2007,06,20,09,44,17.00
2007,06,20,09,45,17.00
2007,06,20,09,46,16.90
2007,06,20,09,47,17.00
2007,06,20,09,48,17.00
2007,06,20,09,49,17.00
2007,06,20,09,50,17.00
2007,06,20,09,51,17.00
2007,06,20,09,52,17.10
2007,06,20,09,53,17.10
2007,06,20,09,54,17.10
2007,06,20,09,55,17.10
2007,06,20,09,56,17.10
2007,06,20,09,57,17.00
2007,06,20,09,58,16.90
2007,06,20,09,59,16.90
2007,06,20,10,00,16.90
2007,06,20,10,01,16.90
2007,06,20,10,02,16.90
2007,06,20,10,03,16.80
2007,06,20,10,04,16.70
2007,06,20,10,05,16.60
2007,06,20,10,06,16.50
2007,06,20,10,07,16.30
2007,06,20,10,08,16.20
2007,06,20,10,09,16.20
2007,06,20,10,10,16.20
2007,06,20,10,11,16.20
2007,06,20,10,12,16.20
2007,06,20,10,13,16.20
2007,06,20,10,14,16.10
2007,06,20,10,15,16.10
2007,06,20,10,16,16.10
2007,06,20,10,17,16.20
2007,06,20,10,18,16.20
2007,06,20,10,19,16.30
2007,06,20,10,20,16.40
2007,06,20,10,21,16.40
2007,06,20,10,22,16.50
2007,06,20,10,23,16.70
2007,06,20,10,24,16.80
2007,06,20,10,25,16.90
2007,06,20,10,26,17.00
2007,06,20,10,27,17.10
2007,06,20,10,28,17.10
2007,06,20,10,29,17.20
2007,06,20,10,30,17.20
2007,06,20,10,31,17.20
2007,06,20,10,32,17.30
2007,06,20,10,33,17.30
2007,06,20,10,34,17.30
2007,06,20,10,35,17.30
2007,06,20,10,36,17.40
2007,06,20,10,37,17.40
2007,06,20,10,38,17.60
2007,06,20,10,39,17.70
2007,06,20,10,40,17.80
2007,06,20,10,41,17.90
2007,06,20,10,42,17.90
2007,06,20,10,43,17.80
2007,06,20,10,44,17.80
2007,06,20,10,45,17.70
2007,06,20,10,46,17.60
2007,06,20,10,47,17.50
2007,06,20,10,48,17.50
2007,06,20,10,49,17.50
2007,06,20,10,50,17.40
2007,06,20,10,51,17.40
2007,06,20,10,52,17.50
2007,06,20,10,53,17.60
2007,06,20,10,54,17.70
2007,06,20,10,55,17.80
2007,06,20,10,56,17.90
2007,06,20,10,57,18.00
2007,06,20,10,58,18.00
2007,06,20,10,59,18.10
2007,06,20,11,00,18.20
2007,06,20,11,01,18.30
2007,06,20,11,02,18.50
2007,06,20,11,03,18.60
2007,06,20,11,04,18.70
2007,06,20,11,05,18.70
2007,06,20,11,06,18.70
2007,06,20,11,07,18.60
2007,06,20,11,08,18.60
2007,06,20,11,09,18.60
2007,06,20,11,10,18.60
2007,06,20,11,11,18.60
2007,06,20,11,12,18.60
2007,06,20,11,13,18.80
2007,06,20,11,14,19.00
2007,06,20,11,15,19.10
2007,06,20,11,16,19.20
2007,06,20,11,17,19.30
2007,06,20,11,18,19.40
2007,06,20,11,19,19.50
2007,06,20,11,20,19.60
2007,06,20,11,21,19.80
2007,06,20,11,22,19.90
2007,06,20,11,23,20.00
2007,06,20,11,24,20.00
2007,06,20,11,25,20.10
2007,06,20,11,26,20.10
2007,06,20,11,27,20.20
2007,06,20,11,28,20.20
2007,06,20,11,29,20.20
2007,06,20,11,30,20.20
2007,06,20,11,31,20.20
2007,06,20,11,32,20.10
2007,06,20,11,33,20.00
2007,06,20,11,34,19.90
2007,06,20,11,35,19.70
2007,06,20,11,36,19.50
2007,06,20,11,37,19.40
2007,06,20,11,38,19.30
2007,06,20,11,39,19.30
2007,06,20,11,40,19.30
2007,06,20,11,41,19.40
2007,06,20,11,42,19.50
2007,06,20,11,43,19.60
2007,06,20,11,44,19.70
2007,06,20,11,45,19.80
2007,06,20,11,46,19.80
2007,06,20,11,47,19.90
2007,06,20,11,48,19.90
2007,06,20,11,49,19.90
2007,06,20,11,50,19.90
2007,06,20,11,51,19.90
2007,06,20,11,52,19.90
2007,06,20,11,53,19.80
2007,06,20,11,54,19.90
2007,06,20,11,55,19.90
2007,06,20,11,56,19.90
2007,06,20,11,57,19.90
2007,06,20,11,58,19.90
2007,06,20,11,59,19.90
2007,06,20,12,00,19.80
2007,06,20,12,01,19.70
2007,06,20,12,02,19.60
2007,06,20,12,03,19.60
2007,06,20,12,04,19.60
2007,06,20,12,05,19.70
2007,06,20,12,06,19.70
2007,06,20,12,07,19.70
2007,06,20,12,08,19.80
2007,06,20,12,09,19.90
2007,06,20,12,10,19.90
2007,06,20,12,11,19.90
2007,06,20,12,12,19.90
2007,06,20,12,13,19.90
2007,06,20,12,14,20.00
2007,06,20,12,15,20.10
2007,06,20,12,16,20.20
2007,06,20,12,17,20.40
2007,06,20,12,18,20.50
2007,06,20,12,19,20.60
2007,06,20,12,20,20.80
2007,06,20,12,21,20.80
2007,06,20,12,22,20.80
2007,06,20,12,23,20.90
2007,06,20,12,24,20.90
2007,06,20,12,25,20.80
2007,06,20,12,26,20.80
2007,06,20,12,27,20.80
2007,06,20,12,28,20.90
2007,06,20,12,29,20.90
2007,06,20,12,30,20.90
2007,06,20,12,31,21.00
2007,06,20,12,32,21.00
2007,06,20,12,33,21.00
2007,06,20,12,34,21.10
2007,06,20,12,35,21.00
2007,06,20,12,36,20.90
2007,06,20,12,37,20.90
2007,06,20,12,38,20.80
2007,06,20,12,39,20.70
2007,06,20,12,40,20.60
2007,06,20,12,41,20.50
2007,06,20,12,42,20.40
2007,06,20,12,43,20.50
2007,06,20,12,44,20.40
2007,06,20,12,45,20.40
2007,06,20,12,46,20.30
2007,06,20,12,47,20.30
2007,06,20,12,48,20.30
2007,06,20,12,49,20.40
2007,06,20,12,50,20.50
2007,06,20,12,51,20.60
2007,06,20,12,52,20.70
2007,06,20,12,53,20.80
2007,06,20,12,54,20.90
2007,06,20,12,55,20.90
2007,06,20,12,56,20.90
2007,06,20,12,57,20.90
2007,06,20,12,58,20.90
2007,06,20,12,59,20.90
2007,06,20,13,00,20.90
2007,06,20,13,01,20.90
2007,06,20,13,02,20.80
2007,06,20,13,03,20.80
2007,06,20,13,04,20.80
2007,06,20,13,05,20.70
2007,06,20,13,06,20.70
2007,06,20,13,07,20.80
2007,06,20,13,08,20.70
2007,06,20,13,09,20.70
2007,06,20,13,10,20.70
2007,06,20,13,11,20.70
2007,06,20,13,12,20.70
2007,06,20,13,13,20.80
2007,06,20,13,14,20.80
2007,06,20,13,15,20.80
2007,06,20,13,16,20.80
2007,06,20,13,17,20.80
2007,06,20,13,18,20.80
2007,06,20,13,19,20.90
2007,06,20,13,20,21.10
2007,06,20,13,21,21.20
2007,06,20,13,22,21.20
2007,06,20,13,23,21.20
2007,06,20,13,24,21.20
2007,06,20,13,25,21.30
2007,06,20,13,26,21.30
2007,06,20,13,27,21.30
2007,06,20,13,28,21.10
2007,06,20,13,29,21.10
2007,06,20,13,30,21.10
2007,06,20,13,31,21.20
2007,06,20,13,32,21.10
2007,06,20,13,33,21.10
2007,06,20,13,34,21.10
2007,06,20,13,35,21.00
2007,06,20,13,36,21.00
2007,06,20,13,37,21.00
2007,06,20,13,38,21.10
2007,06,20,13,39,21.10
2007,06,20,13,40,21.20
2007,06,20,13,41,21.30
2007,06,20,13,42,21.30
2007,06,20,13,43,21.30
2007,06,20,13,44,21.20
2007,06,20,13,45,21.20
2007,06,20,13,46,21.10
2007,06,20,13,47,21.10
2007,06,20,13,48,21.00
2007,06,20,13,49,20.90
2007,06,20,13,50,20.80
2007,06,20,13,51,20.80
2007,06,20,13,52,20.80
2007,06,20,13,53,20.80
2007,06,20,13,54,20.90
2007,06,20,13,55,21.00
2007,06,20,13,56,21.20
2007,06,20,13,57,21.30
2007,06,20,13,58,21.30
2007,06,20,13,59,21.30
2007,06,20,14,00,21.40
2007,06,20,14,01,21.40
2007,06,20,14,02,21.50
2007,06,20,14,03,21.50
2007,06,20,14,04,21.60
2007,06,20,14,05,21.60
2007,06,20,14,06,21.50
2007,06,20,14,07,21.50
2007,06,20,14,08,21.30
2007,06,20,14,09,21.20
2007,06,20,14,10,21.10
2007,06,20,14,11,21.00
2007,06,20,14,12,21.00
2007,06,20,14,13,21.00
2007,06,20,14,14,21.10
2007,06,20,14,15,21.20
2007,06,20,14,16,21.30
2007,06,20,14,17,21.30
2007,06,20,14,18,21.30
2007,06,20,14,19,21.30
2007,06,20,14,20,21.40
2007,06,20,14,21,21.30
2007,06,20,14,22,21.20
2007,06,20,14,23,21.00
2007,06,20,14,24,20.90
2007,06,20,14,25,20.90
2007,06,20,14,26,20.80
2007,06,20,14,27,20.80
2007,06,20,14,28,20.60
2007,06,20,14,29,20.50
2007,06,20,14,30,20.40
2007,06,20,14,31,20.20
2007,06,20,14,32,20.20
2007,06,20,14,33,20.10
2007,06,20,14,34,19.90
2007,06,20,14,35,19.70
2007,06,20,14,36,19.70
2007,06,20,14,37,19.60
2007,06,20,14,38,19.50
2007,06,20,14,39,19.40
2007,06,20,14,40,19.30
2007,06,20,14,41,19.30
2007,06,20,14,42,19.30
2007,06,20,14,43,19.20
2007,06,20,14,44,19.10
2007,06,20,14,45,19.00
2007,06,20,14,46,18.90
2007,06,20,14,47,18.80
2007,06,20,14,48,18.70
2007,06,20,14,49,18.70
2007,06,20,14,50,18.70
2007,06,20,14,51,18.60
2007,06,20,14,52,18.60
2007,06,20,14,53,18.60
2007,06,20,14,54,18.60
2007,06,20,14,55,18.50
2007,06,20,14,56,18.40
2007,06,20,14,57,18.30
2007,06,20,14,58,18.10
2007,06,20,14,59,18.00
2007,06,20,15,00,17.90
2007,06,20,15,01,17.80
2007,06,20,15,02,17.80
2007,06,20,15,03,17.80
2007,06,20,15,04,17.70
2007,06,20,15,05,17.60
2007,06,20,15,06,17.60
2007,06,20,15,07,17.60
2007,06,20,15,08,17.70
2007,06,20,15,09,17.70
2007,06,20,15,10,17.70
2007,06,20,15,11,17.80
2007,06,20,15,12,17.90
2007,06,20,15,13,18.00
2007,06,20,15,14,18.10
2007,06,20,15,15,18.10
2007,06,20,15,16,18.20
2007,06,20,15,17,18.20
2007,06,20,15,18,18.30
2007,06,20,15,19,18.30
2007,06,20,15,20,18.20
2007,06,20,15,21,18.20
2007,06,20,15,22,18.20
2007,06,20,15,23,18.10
2007,06,20,15,24,18.10
2007,06,20,15,25,18.00
2007,06,20,15,26,18.00
2007,06,20,15,27,17.90
2007,06,20,15,28,17.90
2007,06,20,15,29,17.90
2007,06,20,15,30,17.90
2007,06,20,15,31,17.90
2007,06,20,15,32,18.00
2007,06,20,15,33,18.10
2007,06,20,15,34,18.10
2007,06,20,15,35,18.20
2007,06,20,15,36,18.20
2007,06,20,15,37,18.30
2007,06,20,15,38,18.40
2007,06,20,15,39,18.40
2007,06,20,15,40,18.50
2007,06,20,15,41,18.50
2007,06,20,15,42,18.50
2007,06,20,15,43,18.50
2007,06,20,15,44,18.40
2007,06,20,15,45,18.30
2007,06,20,15,46,18.30
2007,06,20,15,47,18.30
2007,06,20,15,48,18.20
2007,06,20,15,49,18.20
2007,06,20,15,50,18.30
2007,06,20,15,51,18.30
2007,06,20,15,52,18.40
2007,06,20,15,53,18.50
2007,06,20,15,54,18.70
2007,06,20,15,55,18.80
2007,06,20,15,56,18.80
2007,06,20,15,57,18.90
2007,06,20,15,58,18.90
2007,06,20,15,59,18.90
2007,06,20,16,00,18.90
2007,06,20,16,01,19.00
2007,06,20,16,02,18.90
2007,06,20,16,03,18.90
2007,06,20,16,04,18.90
2007,06,20,16,05,18.80
2007,06,20,16,06,18.80
2007,06,20,16,07,18.70
2007,06,20,16,08,18.70
2007,06,20,16,09,18.70
2007,06,20,16,10,18.70
2007,06,20,16,11,18.70
2007,06,20,16,12,18.70
2007,06,20,16,13,18.70
2007,06,20,16,14,18.80
2007,06,20,16,15,18.80
2007,06,20,16,16,18.80
2007,06,20,16,17,18.80
2007,06,20,16,18,18.80
2007,06,20,16,19,18.80
2007,06,20,16,20,18.80
2007,06,20,16,21,18.80
2007,06,20,16,22,18.70
2007,06,20,16,23,18.70
2007,06,20,16,24,18.60
2007,06,20,16,25,18.60
2007,06,20,16,26,18.60
2007,06,20,16,27,18.70
2007,06,20,16,28,18.70
2007,06,20,16,29,18.70
2007,06,20,16,30,18.70
2007,06,20,16,31,18.80
2007,06,20,16,32,18.80
2007,06,20,16,33,18.90
2007,06,20,16,34,18.90
2007,06,20,16,35,18.80
2007,06,20,16,36,18.90
2007,06,20,16,37,18.80
2007,06,20,16,38,18.70
2007,06,20,16,39,18.70
2007,06,20,16,40,18.60
2007,06,20,16,41,18.60
2007,06,20,16,42,18.50
2007,06,20,16,43,18.50
2007,06,20,16,44,18.50
2007,06,20,16,45,18.40
2007,06,20,16,46,18.40
2007,06,20,16,47,18.40
2007,06,20,16,48,18.40
2007,06,20,16,49,18.50
2007,06,20,16,50,18.50
2007,06,20,16,51,18.60
2007,06,20,16,52,18.70
2007,06,20,16,53,18.80
2007,06,20,16,54,18.80
2007,06,20,16,55,18.80
2007,06,20,16,56,18.80
2007,06,20,16,57,18.70
2007,06,20,16,58,18.70
2007,06,20,16,59,18.60
2007,06,20,17,00,18.60
2007,06,20,17,01,18.60
2007,06,20,17,02,18.60
2007,06,20,17,03,18.60
2007,06,20,17,04,18.60
2007,06,20,17,05,18.70
2007,06,20,17,06,18.70
2007,06,20,17,07,18.80
2007,06,20,17,08,18.80
2007,06,20,17,09,18.90
2007,06,20,17,10,18.90
2007,06,20,17,11,18.90
2007,06,20,17,12,18.90
2007,06,20,17,13,18.90
2007,06,20,17,14,18.80
2007,06,20,17,15,18.80
2007,06,20,17,16,18.80
2007,06,20,17,17,18.90
2007,06,20,17,18,18.90
2007,06,20,17,19,18.90